User: anonymous   Login
Location: Terra Rouge Observatory
(46.0000°N, 62.7500°W)
Time: 03:45:38
(UTC-03:00)
Language:

Landsat 5 - Orbit

View from above orbital plane
View from above orbital plane
View from above satellite
View from above satellite

Ground track
Ground track

The orbit data is extracted from the following two-line orbital elements,

1 14780U 84021A   16236.21856502  .00000341  00000-0  37712-4 0  9994
2 14780  98.0271 336.7627 0092765  70.7001 290.4221 14.91216279731460
Epoch (UTC): 23 August 2016 05:14:44
Eccentricity: 0.0092765
inclination: 98.0271°
perigee height: 529 km
apogee height: 659 km
right ascension of ascending node: 336.7627°
argument of perigee: 70.7001°
revolutions per day: 14.91216279
mean anomaly at epoch: 290.4221°
orbit number at epoch: 73146

The dashed part of the orbit path shows where the satellite is in the earth's shadow,  

DLR